Location: Unspecified
(0.0000°N, 0.0000°E)
Time: 21:29:39
(UTC+00:00)

Tiros 1 - Pass Details

Date: 20 October 2021
Orbit: 630 x 664 km, 48.4° (Epoch: 04 December)

Event Time Altitude Azimuth Distance (km) Brightness Sun altitude
Rises 21:00:51 0° 300° (WNW) 2,901 - -47.9°
Reaches altitude 10° 21:03:27 10° 287° (WNW) 1,996 - -48.5°
Maximum altitude 21:07:17 26° 231° (SW) 1,243 - -49.5°
Drops below altitude 10° 21:11:07 10° 174° (S) 2,008 - -50.4°
Sets 21:13:46 0° 161° (SSE) 2,921 - -51.0°
